FENGYUN 1C DEB

Satellite information

Favourite Embed

Satellite Type and Status

DEBRISIN ORBIT

Key statistics

Satellite FENGYUN 1C DEB at a glance.

Uptime

9496

Days in orbit

Revolutions

≈ 14.2

Per day

Orbit

SSO

Sun Synchronous Orbit

Inclination

99.3

Latest

Satellite identification and parameters

Extended collection of information and parameters for FENGYUN 1C DEB.

Object identification

Identified? True

Debris? True

Object name: FENGYUN 1C DEB

International designator: 1999-025BXD

Object number (NORAD): 31514

Object ID (CCSDS): 31514

Country: PEOPLES REPUBLIC OF CHINA (PRC)

Current information (Y/N): Y

RCS size: SMALL

Orbital parameters

Period: 101.449 minutes

Inclination: 99.2555 deg

SMA: 7205.403 km

Apoapsis: 868.78 km

Periapsis: 785.756 km

RAAN: 14.8522 deg

Eccentricy: 0.0057612

Argument of periapsis: 28.5104 deg

Mean anomaly: 331.9201 deg

Mean motion: 14.19434429 rev/day

Mean motion (dot): 0.00004227 rev/day2

B* drag term: 0.0019971 1/REarth

Two-line elements (TLE)

Creation date: May 6, 2025, 10:46 p.m.

Reference frame: TEME

Reference center: EARTH

Epoch: May 4, 2025, 3:17 a.m. UTC

TLE line 0: 0 FENGYUN 1C DEB

TLE line 1: 1 31514U 99025BXD 25124.13722044 .00004227 00000-0 19971-2 0 9990

TLE line 2: 2 31514 99.2555 14.8522 0057612 28.5104 331.9201 14.19434429924223

Live tracking on map

Real-time ground track for satellite FENGYUN 1C DEB.

In-orbit conjunctions

A list of the most updated potential collisions computed for object FENGYUN 1C DEB.

Target Orbit TCA Probability of collision Miss distance Type
FENGYUN 1C DEB SSO 2024-11-08 06:46:47 0.001418355 60.0 (m) DEBRIS
FENGYUN 1C DEB SSO 2024-11-08 05:05:06 0.0001429791 792.0 (m) DEBRIS
PSLV R/B SSO 2024-08-07 08:15:29 0.0001404583 65.0 (m) ROCKET BODY
CZ-4 DEB SSO 2024-07-26 14:23:50 0.0001170012 129.0 (m) DEBRIS

Associated space launch

Chinese polar orbiting meteorological satellite

FENGYUN 1C DEB was lifted into orbit during the mission ‘Long March 4B | Feng Yun 1C’, on board a Long March 4B space rocket.

The launch took place on May 10, 1999, 1:33 a.m. from Launch Complex 7.

For more information about the launch, click the button.

Launch to space Long March 4B | Feng Yun 1C
Long March 4B | Feng Yun 1C

Agency: N/A

Status: Launch Successful

Launch date: May 10, 1999, 1:33 a.m. UTC

Rocket: Long March 4B

Launch pad: Launch Complex 7

Location: Taiyuan Satellite Launch Center, People's Republic of China

...

Latest news about this satellite

There are no fresh news available about this satellite. Check back as we update our databases every day.


Newsletter sign-up

Weekly statistics, charts and insights to help you stay on top of the space industry.